This is the latest recevied weather packets stored in our database for station/object KC8PTQ. If no packets are shown the sender has not sent any weather packets the latest 1 day(s).
| Time | Temp. | Humidity | Pressure | Rain* | Wind** | Luminosity | Snow |
|---|---|---|---|---|---|---|---|
| 1777984101 | 15° C | 83% | 1007.9 hPa | 0 mm | 0 m/s | 32 W/m² | - |
| 1777983798 | 15° C | 83% | 1007.8 hPa | 0 mm | 0 m/s | 27 W/m² | - |
| 1777983495 | 15° C | 83% | 1007.7 hPa | 0 mm | 0.45 m/s, 283° | 31 W/m² | - |
| 1777983192 | 15° C | 83% | 1007.7 hPa | 0 mm | 0 m/s | 37 W/m² | - |
| 1777982888 | 15° C | 83% | 1007.6 hPa | 0 mm | 0.45 m/s, 312° | 41 W/m² | - |
| 1777982584 | 15° C | 82% | 1007.4 hPa | 0 mm | 0.89 m/s, 247° | 48 W/m² | - |
| 1777982283 | 15° C | 82% | 1007 hPa | 0 mm | 0.45 m/s, 215° | 44 W/m² | - |
| 1777981980 | 15° C | 82% | 1006.4 hPa | 0 mm | 1.34 m/s, 203° | 40 W/m² | - |
| 1777981678 | 15° C | 83% | 1006.3 hPa | 0 mm | 1.34 m/s, 212° | 27 W/m² | - |
| 1777981374 | 14.44° C | 85% | 1006.3 hPa | 0 mm | 0.45 m/s, 247° | 18 W/m² | - |
| 1777981070 | 15° C | 84% | 1006.8 hPa | 0 mm | 1.34 m/s, 103° | 18 W/m² | - |
| 1777980767 | 14.44° C | 84% | 1006.7 hPa | 0 mm | 0.45 m/s, 212° | 13 W/m² | - |
| 1777980463 | 14.44° C | 84% | 1007 hPa | 0 mm | 0.45 m/s, 238° | 12 W/m² | - |
| 1777980161 | 15° C | 84% | 1007.1 hPa | 0 mm | 0.89 m/s, 258° | 8 W/m² | - |
| 1777979860 | 15° C | 83% | 1007.1 hPa | 0 mm | 1.79 m/s, 218° | 5 W/m² | - |
| 1777979557 | 15° C | 82% | 1007.3 hPa | 0 mm | 0 m/s | 4 W/m² | - |
| 1777979253 | 15.56° C | 79% | 1007.1 hPa | 0 mm | 1.34 m/s, 227° | 4 W/m² | - |
| 1777978951 | 15.56° C | 77% | 1007.2 hPa | 0 mm | 0.89 m/s, 239° | 5 W/m² | - |
| 1777978647 | 16.11° C | 75% | 1007 hPa | 0 mm | 0.45 m/s, 291° | 5 W/m² | - |
| 1777978342 | 16.11° C | 74% | 1006.8 hPa | 0 mm | 0.45 m/s, 204° | 4 W/m² | - |
| 1777978039 | 16.67° C | 72% | 1006.8 hPa | 0 mm | 1.79 m/s, 243° | 2 W/m² | - |
| 1777977737 | 16.67° C | 71% | 1007 hPa | 0 mm | 1.34 m/s, 143° | 2 W/m² | - |
| 1777977433 | 16.67° C | 71% | 1006.8 hPa | 0 mm | 0 m/s | 1 W/m² | - |
| 1777977131 | 16.67° C | 71% | 1006.7 hPa | 0 mm | 0.89 m/s, 204° | 1 W/m² | - |
| 1777976828 | 16.67° C | 72% | 1006.6 hPa | 0 mm | 0.89 m/s, 275° | 1 W/m² | - |
* Rain latest hour (hover to see other rain measurements)
** Current wind speed in m/s (hover to see current wind gust speed)